Station History

Weather Underground - logo

Station Historical Data
Daily Summary for September 6, 2017 Units:  English    Metric   Both
« Previous Day
Next Day »
Daily Weekly Monthly Yearly Custom
  High: Low: Average:
Temperature: 97.4 °F 70.1 °F 83.3 °F
Dew Point: 71.9 °F 58.7 °F 65.8 °F
Humidity: 76 % 38 % 57 %
Wind Speed: 4.6 mph 0.0 mph 1.3 mph
Wind Gust: 4.6 mph - -
Wind:- - South
Pressure: 29.92 in 29.78 in -
Precipitation: 0.00 in    
Historical Graphs
 
 
Tabular Data for September 6, 2017
Time Temperature Dew Point Pressure Wind Wind Speed Wind Gust Humidity Rainfall Rate (Hourly)
00:04 77.6 °F 64.9 °F 29.88 in Calm     65 % 0.00 in
00:09 77.4 °F 64.7 °F 29.88 in Calm     65 % 0.00 in
00:14 77.2 °F 64.5 °F 29.88 in SE 1.0 mph   65 % 0.00 in
00:19 77.1 °F 64.0 °F 29.88 in SE 1.2 mph 1.2 mph 64 % 0.00 in
00:24 77.1 °F 64.0 °F 29.88 in Calm     64 % 0.00 in
00:29 76.9 °F 64.2 °F 29.88 in SE 1.2 mph   65 % 0.00 in
00:34 76.7 °F 64.9 °F 29.88 in ESE 1.2 mph 1.2 mph 67 % 0.00 in
00:39 76.3 °F 65.0 °F 29.88 in SE 1.2 mph   68 % 0.00 in
00:44 76.1 °F 64.8 °F 29.88 in ESE 1.2 mph   68 % 0.00 in
00:49 75.9 °F 65.0 °F 29.88 in Calm     69 % 0.00 in
00:54 75.7 °F 64.8 °F 29.88 in SE 1.2 mph   69 % 0.00 in
00:59 75.5 °F 64.6 °F 29.88 in SE 1.2 mph 1.2 mph 69 % 0.00 in
01:04 75.4 °F 64.5 °F 29.88 in SE 1.2 mph   69 % 0.00 in
01:09 75.2 °F 64.3 °F 29.88 in SE 1.2 mph 1.2 mph 69 % 0.00 in
01:14 75.2 °F 64.3 °F 29.89 in Calm     69 % 0.00 in
01:19 75.0 °F 64.1 °F 29.89 in Calm   0.1 mph 69 % 0.00 in
01:24 75.0 °F 63.7 °F 29.89 in Calm     68 % 0.00 in
01:29 75.0 °F 63.7 °F 29.89 in Calm     68 % 0.00 in
01:39 74.8 °F 63.9 °F 29.88 in Calm     69 % 0.00 in
01:44 74.7 °F 63.9 °F 29.89 in Calm     69 % 0.00 in
01:49 74.4 °F 64.0 °F 29.88 in Calm     70 % 0.00 in
01:54 74.1 °F 63.7 °F 29.89 in Calm     70 % 0.00 in
02:00 74.0 °F 63.6 °F 29.88 in Calm     70 % 0.00 in
02:05 73.9 °F 63.5 °F 29.88 in Calm     70 % 0.00 in
02:10 73.7 °F 63.3 °F 29.88 in Calm     70 % 0.00 in
02:15 73.6 °F 63.6 °F 29.88 in SE 1.2 mph   71 % 0.00 in
02:20 73.5 °F 63.5 °F 29.88 in Calm     71 % 0.00 in
02:25 73.3 °F 63.7 °F 29.88 in Calm     72 % 0.00 in
02:30 73.0 °F 63.4 °F 29.88 in Calm     72 % 0.00 in
02:35 73.0 °F 63.8 °F 29.88 in Calm     73 % 0.00 in
02:40 72.9 °F 63.7 °F 29.88 in Calm     73 % 0.00 in
02:45 72.8 °F 63.6 °F 29.88 in Calm     73 % 0.00 in
02:50 72.8 °F 63.2 °F 29.88 in Calm     72 % 0.00 in
02:55 72.8 °F 63.2 °F 29.88 in Calm     72 % 0.00 in
03:00 72.7 °F 63.1 °F 29.88 in Calm     72 % 0.00 in
03:05 72.7 °F 63.1 °F 29.88 in Calm     72 % 0.00 in
03:10 72.7 °F 63.1 °F 29.88 in Calm     72 % 0.00 in
03:15 72.7 °F 62.8 °F 29.88 in Calm     71 % 0.00 in
03:20 72.7 °F 62.8 °F 29.88 in Calm     71 % 0.00 in
03:25 72.9 °F 62.5 °F 29.88 in Calm     70 % 0.00 in
03:30 73.1 °F 62.7 °F 29.88 in Calm     70 % 0.00 in
03:35 73.2 °F 62.8 °F 29.88 in Calm     70 % 0.00 in
03:40 73.2 °F 63.2 °F 29.87 in Calm     71 % 0.00 in
03:43 73.0 °F 63.0 °F 29.88 in Calm     71 % 0.00 in
03:45 72.9 °F 62.9 °F 29.88 in Calm     71 % 0.00 in
03:50 73.1 °F 63.1 °F 29.88 in Calm     71 % 0.00 in
03:55 73.3 °F 62.9 °F 29.88 in SE 1.2 mph   70 % 0.00 in
04:00 73.5 °F 63.1 °F 29.88 in Calm     70 % 0.00 in
05:31 71.4 °F 61.5 °F 29.88 in SE 1.0 mph 1.0 mph 71 % 0.00 in
05:36 71.5 °F 61.6 °F 29.88 in Calm     71 % 0.00 in
05:41 71.5 °F 61.6 °F 29.88 in SE 1.2 mph   71 % 0.00 in
05:46 71.4 °F 61.9 °F 29.88 in Calm     72 % 0.00 in
05:51 71.4 °F 61.9 °F 29.88 in SE 1.2 mph   72 % 0.00 in
05:56 71.2 °F 62.1 °F 29.88 in Calm     73 % 0.00 in
06:01 71.1 °F 62.4 °F 29.88 in Calm     74 % 0.00 in
06:06 70.9 °F 62.2 °F 29.89 in Calm     74 % 0.00 in
06:11 70.7 °F 62.0 °F 29.89 in SE 1.2 mph   74 % 0.00 in
06:16 70.6 °F 61.9 °F 29.89 in SE 1.2 mph 1.2 mph 74 % 0.00 in
06:21 70.4 °F 61.7 °F 29.89 in Calm     74 % 0.00 in
06:26 70.2 °F 61.9 °F 29.89 in Calm     75 % 0.00 in
06:31 70.1 °F 61.4 °F 29.89 in Calm     74 % 0.00 in
06:36 70.2 °F 61.5 °F 29.90 in Calm     74 % 0.00 in
06:41 70.2 °F 61.9 °F 29.90 in Calm     75 % 0.00 in
06:46 70.2 °F 61.9 °F 29.90 in Calm     75 % 0.00 in
06:51 70.1 °F 61.8 °F 29.90 in Calm     75 % 0.00 in
06:56 70.1 °F 62.2 °F 29.90 in Calm   0.1 mph 76 % 0.00 in
07:01 70.1 °F 61.8 °F 29.90 in ESE 1.2 mph   75 % 0.00 in
07:06 70.4 °F 61.7 °F 29.90 in Calm     74 % 0.00 in
07:11 70.7 °F 61.6 °F 29.90 in Calm     73 % 0.00 in
07:16 71.0 °F 61.9 °F 29.90 in Calm     73 % 0.00 in
07:21 71.2 °F 61.7 °F 29.90 in ESE 1.0 mph   72 % 0.00 in
07:26 71.5 °F 62.0 °F 29.90 in Calm     72 % 0.00 in
07:31 71.7 °F 62.2 °F 29.90 in Calm     72 % 0.00 in
07:36 72.0 °F 62.1 °F 29.91 in SE 2.3 mph 2.3 mph 71 % 0.00 in
07:41 72.3 °F 62.0 °F 29.91 in SSE 1.2 mph 1.2 mph 70 % 0.00 in
07:46 72.6 °F 61.8 °F 29.91 in East 2.3 mph 2.3 mph 69 % 0.00 in
07:52 72.9 °F 61.7 °F 29.91 in ESE 1.2 mph 1.2 mph 68 % 0.00 in
07:57 73.6 °F 62.4 °F 29.91 in SE 1.2 mph 1.2 mph 68 % 0.00 in
08:02 74.4 °F 61.9 °F 29.91 in SE 2.3 mph 2.3 mph 65 % 0.00 in
08:07 75.1 °F 62.1 °F 29.92 in SE 1.2 mph 1.2 mph 64 % 0.00 in
08:12 75.8 °F 62.3 °F 29.92 in SE 2.3 mph 2.3 mph 63 % 0.00 in
08:17 76.2 °F 62.7 °F 29.91 in SE 1.2 mph 1.2 mph 63 % 0.00 in
08:27 76.8 °F 62.8 °F 29.91 in Calm     62 % 0.00 in
08:32 77.2 °F 62.7 °F 29.92 in SE 2.3 mph 2.3 mph 61 % 0.00 in
08:37 77.2 °F 62.2 °F 29.92 in SE 2.3 mph 2.3 mph 60 % 0.00 in
08:42 77.0 °F 62.5 °F 29.92 in SSE 3.5 mph 3.5 mph 61 % 0.00 in
08:47 77.2 °F 62.7 °F 29.92 in ENE 1.2 mph 1.2 mph 61 % 0.00 in
08:52 78.3 °F 62.8 °F 29.92 in ESE 2.3 mph 2.3 mph 59 % 0.00 in
08:57 79.2 °F 62.7 °F 29.92 in South 2.3 mph 2.3 mph 57 % 0.00 in
09:02 79.2 °F 62.7 °F 29.91 in SSE 3.5 mph 3.5 mph 57 % 0.00 in
09:07 79.0 °F 62.5 °F 29.92 in SE 1.2 mph 1.2 mph 57 % 0.00 in
09:12 79.6 °F 62.5 °F 29.92 in SE 2.3 mph 2.3 mph 56 % 0.00 in
09:17 80.5 °F 63.4 °F 29.92 in NE 3.5 mph 3.5 mph 56 % 0.00 in
09:22 80.9 °F 63.2 °F 29.92 in South 2.3 mph 2.3 mph 55 % 0.00 in
09:27 81.2 °F 63.5 °F 29.92 in SE 3.5 mph 3.5 mph 55 % 0.00 in
09:32 81.9 °F 63.6 °F 29.92 in ESE 3.5 mph 3.5 mph 54 % 0.00 in
09:37 82.4 °F 63.0 °F 29.92 in South 3.5 mph 3.5 mph 52 % 0.00 in
09:42 82.9 °F 63.5 °F 29.92 in SSE 2.3 mph 2.3 mph 52 % 0.00 in
09:44 83.2 °F 63.7 °F 29.92 in South 3.5 mph 3.5 mph 52 % 0.00 in
09:49 83.8 °F 64.3 °F 29.91 in ESE 3.5 mph 3.5 mph 52 % 0.00 in
09:54 83.4 °F 64.5 °F 29.91 in South 2.3 mph 2.3 mph 53 % 0.00 in
09:59 83.2 °F 64.8 °F 29.91 in SE 1.2 mph 1.2 mph 54 % 0.00 in
10:04 83.4 °F 65.0 °F 29.92 in ESE 3.5 mph 3.5 mph 54 % 0.00 in
10:09 83.5 °F 66.2 °F 29.92 in SE 2.0 mph 2.0 mph 56 % 0.00 in
10:14 84.2 °F 66.8 °F 29.92 in SE 3.0 mph 3.0 mph 56 % 0.00 in
10:19 84.7 °F 66.7 °F 29.92 in SSE 1.2 mph 1.2 mph 55 % 0.00 in
10:24 85.2 °F 67.7 °F 29.91 in SSE 2.3 mph   56 % 0.00 in
10:29 85.6 °F 67.6 °F 29.91 in East 3.5 mph 3.5 mph 55 % 0.00 in
10:34 86.2 °F 68.1 °F 29.91 in SSE 3.0 mph 3.0 mph 55 % 0.00 in
10:39 86.5 °F 68.4 °F 29.91 in NNW 1.2 mph 1.2 mph 55 % 0.00 in
10:44 86.8 °F 67.6 °F 29.91 in NNW 2.3 mph 2.3 mph 53 % 0.00 in
10:49 86.7 °F 67.5 °F 29.91 in SSE 3.5 mph 3.5 mph 53 % 0.00 in
10:54 87.0 °F 67.8 °F 29.91 in South 2.0 mph 2.0 mph 53 % 0.00 in
11:04 87.7 °F 69.5 °F 29.90 in SE 4.0 mph 4.0 mph 55 % 0.00 in
11:09 88.0 °F 68.7 °F 29.90 in South 3.5 mph 3.5 mph 53 % 0.00 in
11:14 88.2 °F 69.5 °F 29.90 in ENE 1.2 mph   54 % 0.00 in
11:19 88.7 °F 71.0 °F 29.90 in SSW 1.2 mph 1.2 mph 56 % 0.00 in
11:24 89.3 °F 69.9 °F 29.90 in SE 2.3 mph   53 % 0.00 in
11:29 89.6 °F 70.8 °F 29.90 in ESE 1.2 mph   54 % 0.00 in
11:34 90.0 °F 69.4 °F 29.90 in South 2.3 mph 2.3 mph 51 % 0.00 in
11:39 89.8 °F 69.8 °F 29.90 in SSW 2.3 mph 2.3 mph 52 % 0.00 in
11:44 90.0 °F 70.6 °F 29.89 in ESE 3.0 mph 3.0 mph 53 % 0.00 in
11:49 90.2 °F 70.2 °F 29.89 in East 3.5 mph 3.5 mph 52 % 0.00 in
11:54 90.4 °F 69.8 °F 29.89 in NW 2.3 mph 2.3 mph 51 % 0.00 in
11:59 90.4 °F 69.8 °F 29.89 in SE 2.0 mph 2.0 mph 51 % 0.00 in
12:04 91.0 °F 70.9 °F 29.88 in West 1.2 mph 1.2 mph 52 % 0.00 in
12:09 91.0 °F 70.9 °F 29.89 in WNW 1.2 mph 1.2 mph 52 % 0.00 in
12:14 91.0 °F 70.9 °F 29.88 in NW 1.2 mph 1.2 mph 52 % 0.00 in
12:19 90.9 °F 69.7 °F 29.88 in WNW 1.2 mph 1.2 mph 50 % 0.00 in
12:24 91.1 °F 71.0 °F 29.88 in ESE 2.3 mph   52 % 0.00 in
12:29 92.0 °F 70.1 °F 29.88 in West 2.3 mph 2.3 mph 49 % 0.00 in
12:34 93.0 °F 71.6 °F 29.88 in Calm     50 % 0.00 in
12:39 93.3 °F 70.1 °F 29.87 in South 1.2 mph 1.2 mph 47 % 0.00 in
12:44 93.4 °F 69.5 °F 29.87 in ESE 1.2 mph 1.2 mph 46 % 0.00 in
12:49 93.1 °F 69.9 °F 29.87 in NNW 3.5 mph 3.5 mph 47 % 0.00 in
12:54 93.1 °F 68.6 °F 29.87 in WNW 2.0 mph 2.0 mph 45 % 0.00 in
12:59 92.8 °F 69.6 °F 29.86 in NW 1.2 mph 1.2 mph 47 % 0.00 in
13:04 92.5 °F 69.3 °F 29.86 in NW 1.2 mph 1.2 mph 47 % 0.00 in
13:09 92.4 °F 70.5 °F 29.86 in WNW 2.3 mph 2.3 mph 49 % 0.00 in
13:14 92.9 °F 70.9 °F 29.86 in South 3.5 mph 3.5 mph 49 % 0.00 in
13:19 93.9 °F 71.8 °F 29.86 in East 2.3 mph 2.3 mph 49 % 0.00 in
13:24 93.8 °F 69.2 °F 29.86 in NW 3.5 mph 3.5 mph 45 % 0.00 in
13:29 93.0 °F 68.5 °F 29.86 in NNW 2.3 mph   45 % 0.00 in
13:34 93.0 °F 69.8 °F 29.85 in NW 4.0 mph 4.0 mph 47 % 0.00 in
13:39 93.6 °F 68.4 °F 29.85 in WNW 1.2 mph 1.3 mph 44 % 0.00 in
13:44 93.9 °F 69.3 °F 29.85 in WNW 2.3 mph 2.3 mph 45 % 0.00 in
13:50 93.8 °F 67.9 °F 29.85 in NW 1.2 mph 1.2 mph 43 % 0.00 in
13:55 94.3 °F 69.0 °F 29.85 in NW 2.0 mph 2.0 mph 44 % 0.00 in
14:00 94.0 °F 68.8 °F 29.85 in NW 2.0 mph 2.0 mph 44 % 0.00 in
14:05 94.5 °F 71.2 °F 29.84 in South 1.2 mph 1.2 mph 47 % 0.00 in
14:10 95.0 °F 69.7 °F 29.84 in NW 2.3 mph 2.3 mph 44 % 0.00 in
14:15 94.7 °F 70.1 °F 29.84 in NW 2.3 mph 2.3 mph 45 % 0.00 in
14:20 95.2 °F 69.8 °F 29.83 in SE 1.2 mph 1.2 mph 44 % 0.00 in
14:25 95.0 °F 70.3 °F 29.83 in NW 2.3 mph 2.3 mph 45 % 0.00 in
14:30 95.3 °F 70.6 °F 29.83 in SE 1.2 mph 1.2 mph 45 % 0.00 in
14:35 96.0 °F 71.9 °F 29.82 in ENE 1.2 mph 1.2 mph 46 % 0.00 in
14:36 96.1 °F 69.3 °F 29.82 in SW 2.3 mph 2.3 mph 42 % 0.00 in
14:41 96.1 °F 70.0 °F 29.82 in SE 1.2 mph 1.2 mph 43 % 0.00 in
14:46 96.0 °F 70.6 °F 29.82 in South 1.2 mph   44 % 0.00 in
14:51 96.1 °F 70.7 °F 29.82 in WNW 2.0 mph 2.0 mph 44 % 0.00 in
14:56 96.1 °F 70.0 °F 29.82 in NW 1.2 mph 1.2 mph 43 % 0.00 in
15:01 96.1 °F 70.0 °F 29.82 in NNW 2.3 mph 2.3 mph 43 % 0.00 in
15:06 96.1 °F 71.3 °F 29.82 in SE 2.3 mph 2.3 mph 45 % 0.00 in
15:11 96.3 °F 70.8 °F 29.81 in WNW 3.5 mph 3.5 mph 44 % 0.00 in
15:16 96.8 °F 70.6 °F 29.81 in NE 2.3 mph 2.3 mph 43 % 0.00 in
15:21 97.1 °F 70.9 °F 29.81 in NE 3.5 mph 3.5 mph 43 % 0.00 in
15:26 97.4 °F 71.2 °F 29.81 in SE 1.2 mph   43 % 0.00 in
15:31 97.2 °F 70.3 °F 29.81 in NNW 2.3 mph 2.3 mph 42 % 0.00 in
15:36 97.2 °F 71.0 °F 29.81 in SE 1.2 mph 1.2 mph 43 % 0.00 in
15:41 97.1 °F 70.9 °F 29.81 in NE 2.0 mph 2.0 mph 43 % 0.00 in
15:46 96.5 °F 69.7 °F 29.81 in NW 3.5 mph 3.5 mph 42 % 0.00 in
15:51 96.0 °F 70.6 °F 29.80 in WNW 1.0 mph 1.0 mph 44 % 0.00 in
15:56 96.3 °F 70.8 °F 29.80 in NNW 1.2 mph 1.2 mph 44 % 0.00 in
16:01 96.5 °F 69.7 °F 29.80 in NW 3.5 mph 3.5 mph 42 % 0.00 in
16:06 96.6 °F 70.4 °F 29.80 in NW 2.3 mph 2.3 mph 43 % 0.00 in
16:11 96.3 °F 70.8 °F 29.80 in WNW 1.2 mph   44 % 0.00 in
16:16 96.3 °F 70.8 °F 29.80 in NW 3.5 mph 3.5 mph 44 % 0.00 in
16:21 96.2 °F 70.1 °F 29.79 in WSW 2.3 mph 2.3 mph 43 % 0.00 in
16:26 96.3 °F 70.8 °F 29.79 in NNW 1.2 mph 1.2 mph 44 % 0.00 in
16:31 96.5 °F 69.7 °F 29.79 in WNW 2.3 mph 2.3 mph 42 % 0.00 in
16:36 96.4 °F 68.9 °F 29.79 in WNW 2.0 mph 2.0 mph 41 % 0.00 in
16:41 96.3 °F 70.2 °F 29.79 in WNW 2.3 mph 2.3 mph 43 % 0.00 in
16:46 96.4 °F 68.9 °F 29.79 in WNW 2.3 mph 2.3 mph 41 % 0.00 in
16:51 96.6 °F 69.7 °F 29.79 in NW 2.0 mph 2.0 mph 42 % 0.00 in
16:57 96.4 °F 68.9 °F 29.79 in West 2.0 mph 2.0 mph 41 % 0.00 in
17:02 96.4 °F 68.9 °F 29.79 in NNE 2.3 mph   41 % 0.00 in
17:07 96.6 °F 68.3 °F 29.79 in Calm     40 % 0.00 in
17:17 97.1 °F 69.5 °F 29.79 in West 1.2 mph 1.2 mph 41 % 0.00 in
17:22 97.3 °F 68.2 °F 29.79 in Calm     39 % 0.00 in
17:27 96.9 °F 67.1 °F 29.79 in NNW 1.2 mph 1.2 mph 38 % 0.00 in
17:32 96.7 °F 67.7 °F 29.79 in Calm     39 % 0.00 in
17:37 96.8 °F 67.8 °F 29.79 in WSW 2.3 mph 2.3 mph 39 % 0.00 in
17:42 96.7 °F 69.1 °F 29.79 in Calm     41 % 0.00 in
17:47 96.2 °F 68.0 °F 29.79 in NW 2.3 mph 2.3 mph 40 % 0.00 in
17:52 95.8 °F 68.3 °F 29.79 in Calm     41 % 0.00 in
17:57 95.4 °F 68.0 °F 29.78 in WNW 2.3 mph 2.3 mph 41 % 0.00 in
18:02 95.2 °F 68.5 °F 29.78 in WSW 1.2 mph 1.2 mph 42 % 0.00 in
18:07 94.8 °F 68.1 °F 29.79 in North 1.2 mph 1.2 mph 42 % 0.00 in
18:12 94.0 °F 68.1 °F 29.79 in Calm     43 % 0.00 in
18:17 93.4 °F 67.6 °F 29.79 in Calm     43 % 0.00 in
18:22 92.9 °F 68.4 °F 29.79 in ENE 1.2 mph   45 % 0.00 in
18:27 92.3 °F 68.5 °F 29.79 in Calm     46 % 0.00 in
18:32 91.8 °F 68.1 °F 29.79 in Calm     46 % 0.00 in
18:34 91.7 °F 69.8 °F 29.79 in Calm     49 % 0.00 in
18:39 91.0 °F 68.0 °F 29.79 in Calm     47 % 0.00 in
18:44 90.5 °F 67.5 °F 29.79 in Calm     47 % 0.00 in
18:49 90.0 °F 68.3 °F 29.79 in Calm     49 % 0.00 in
18:54 89.6 °F 67.9 °F 29.79 in Calm     49 % 0.00 in
18:59 89.2 °F 68.1 °F 29.79 in Calm     50 % 0.00 in
19:04 88.8 °F 68.3 °F 29.79 in Calm     51 % 0.00 in
19:09 88.3 °F 69.5 °F 29.79 in Calm     54 % 0.00 in
19:19 87.5 °F 68.3 °F 29.79 in Calm     53 % 0.00 in
19:24 87.2 °F 69.1 °F 29.80 in Calm     55 % 0.00 in
19:29 86.7 °F 69.1 °F 29.80 in Calm     56 % 0.00 in
19:34 86.3 °F 69.3 °F 29.80 in Calm     57 % 0.00 in
19:39 85.7 °F 69.2 °F 29.80 in Calm     58 % 0.00 in
19:44 85.2 °F 68.8 °F 29.80 in Calm     58 % 0.00 in
19:49 84.8 °F 68.4 °F 29.80 in Calm     58 % 0.00 in
19:54 84.6 °F 68.7 °F 29.80 in Calm     59 % 0.00 in
19:59 84.4 °F 69.5 °F 29.81 in Calm     61 % 0.00 in
20:04 84.1 °F 70.1 °F 29.81 in Calm     63 % 0.00 in
20:09 83.7 °F 70.2 °F 29.81 in Calm     64 % 0.00 in
20:15 83.3 °F 68.9 °F 29.81 in Calm     62 % 0.00 in
20:20 83.0 °F 68.6 °F 29.81 in Calm     62 % 0.00 in
20:21 82.9 °F 69.0 °F 29.81 in Calm     63 % 0.00 in
20:26 82.7 °F 68.8 °F 29.81 in Calm     63 % 0.00 in
20:28 82.6 °F 68.7 °F 29.81 in Calm     63 % 0.00 in
20:33 82.5 °F 69.1 °F 29.81 in Calm     64 % 0.00 in
20:38 82.0 °F 68.6 °F 29.82 in Calm     64 % 0.00 in
20:43 81.4 °F 68.9 °F 29.82 in South 1.2 mph 1.2 mph 66 % 0.00 in
20:48 80.9 °F 68.9 °F 29.82 in South 1.2 mph 1.2 mph 67 % 0.00 in
20:53 80.3 °F 68.3 °F 29.82 in Calm     67 % 0.00 in
20:58 80.1 °F 67.7 °F 29.83 in SSE 1.2 mph   66 % 0.00 in
21:03 80.1 °F 67.7 °F 29.82 in Calm     66 % 0.00 in
21:08 79.9 °F 66.6 °F 29.83 in Calm     64 % 0.00 in
21:13 79.9 °F 66.2 °F 29.83 in Calm     63 % 0.00 in
21:18 79.8 °F 66.5 °F 29.83 in Calm     64 % 0.00 in
21:23 79.5 °F 65.8 °F 29.83 in Calm     63 % 0.00 in
21:28 79.3 °F 64.7 °F 29.83 in Calm     61 % 0.00 in
21:33 79.3 °F 64.7 °F 29.83 in ESE 1.2 mph 1.2 mph 61 % 0.00 in
21:38 79.2 °F 63.6 °F 29.83 in Calm     59 % 0.00 in
21:43 78.8 °F 62.8 °F 29.83 in SE 1.2 mph 1.2 mph 58 % 0.00 in
21:48 78.6 °F 62.1 °F 29.84 in SE 2.3 mph 2.3 mph 57 % 0.00 in
21:53 78.3 °F 61.8 °F 29.84 in SSE 2.3 mph 2.3 mph 57 % 0.00 in
21:58 78.2 °F 61.2 °F 29.84 in SE 2.0 mph 2.0 mph 56 % 0.00 in
22:03 78.4 °F 60.9 °F 29.84 in ESE 3.5 mph 3.5 mph 55 % 0.00 in
22:08 78.4 °F 60.4 °F 29.84 in SE 4.0 mph 4.0 mph 54 % 0.00 in
22:13 78.3 °F 60.3 °F 29.84 in SE 2.0 mph 2.0 mph 54 % 0.00 in
22:18 78.0 °F 60.5 °F 29.84 in SE 1.2 mph 1.2 mph 55 % 0.00 in
22:23 77.9 °F 60.4 °F 29.85 in ESE 2.3 mph 2.3 mph 55 % 0.00 in
22:28 77.9 °F 59.9 °F 29.85 in SE 3.5 mph 3.5 mph 54 % 0.00 in
22:33 77.8 °F 60.3 °F 29.84 in SE 1.2 mph 1.2 mph 55 % 0.00 in
22:38 77.7 °F 59.7 °F 29.85 in SE 1.2 mph   54 % 0.00 in
22:39 77.7 °F 59.2 °F 29.85 in SE 1.2 mph 1.2 mph 53 % 0.00 in
22:44 77.9 °F 58.9 °F 29.85 in SSE 4.6 mph 4.6 mph 52 % 0.00 in
22:49 78.1 °F 59.0 °F 29.85 in Calm     52 % 0.00 in
22:54 77.9 °F 59.4 °F 29.85 in SSE 2.3 mph 2.3 mph 53 % 0.00 in
22:59 77.8 °F 59.3 °F 29.85 in SE 2.3 mph 2.3 mph 53 % 0.00 in
23:04 77.7 °F 59.2 °F 29.85 in SE 2.3 mph 2.3 mph 53 % 0.00 in
23:09 77.7 °F 59.2 °F 29.85 in SE 4.0 mph 4.0 mph 53 % 0.00 in
23:14 77.7 °F 58.7 °F 29.85 in SE 3.5 mph 3.5 mph 52 % 0.00 in
23:19 77.8 °F 58.8 °F 29.85 in East 3.5 mph 3.5 mph 52 % 0.00 in
23:24 77.9 °F 58.9 °F 29.85 in East 2.3 mph 2.3 mph 52 % 0.00 in
23:29 77.8 °F 58.8 °F 29.85 in South 3.5 mph 3.5 mph 52 % 0.00 in
23:34 77.7 °F 59.2 °F 29.85 in SE 2.3 mph 2.3 mph 53 % 0.00 in
23:39 77.7 °F 58.7 °F 29.85 in ESE 3.5 mph 3.5 mph 52 % 0.00 in
23:44 77.9 °F 58.9 °F 29.85 in East 1.2 mph 1.2 mph 52 % 0.00 in
23:50 78.0 °F 58.9 °F 29.85 in ESE 2.3 mph 2.3 mph 52 % 0.00 in
23:55 78.0 °F 58.9 °F 29.85 in SE 2.3 mph 2.3 mph 52 % 0.00 in
Park Place, Exeter, Tulare County, California, USA
Compliments of Weather Underground - 2.75 mb